Погода в Заповедном

Россия / Калининградская область     55°03′49″N   21°22′48″E
темп.,
°C
ветер,
м/с
пор.,
м/с
влажн.,
%
обл.,
%
осадки,
мм/ч
давл.,
гПа
погр.,
м
21 апреля, ср
ср2123:00+7зсз227453 0.0 101148
02:00+5з348675 0.0 101065
05:00+4зсз35835 0.0 100991
08:00+9зсз36615 0.0 1009268
11:00+12з45455 0.0 1009735
14:00+13зсз57465 0.0 1008739
17:00+11з59485 0.0 1007595
20:00+7з41175100 0.0 1008413
22 апреля, чт
чт2223:00+6зюз4118178 0.0 1007456
02:00+6юз496747 0.0 1007742
05:00+4юз51076100 0.0 1007778
08:00+5юз6106731 0.0 1007921
11:00+6юз7126798 0.1 10071660
14:00+6зюз81371100 0.7 10071414
17:00+5з7117996 0.3 10081109
20:00+3зюз61194100 0.6 1008885
23 апреля, пт
пт2323:00+4зсз71186100 1.4 1008989
02:00+3з71087100 1.3 10081026
05:00+3зсз71292100 1.0 10091031
08:00+4зсз6978100 1.6 10101142
11:00+3зсз71193100 1.0 1012955
14:00+4зсз71184100 2.1 10141149
17:00+3зсз71186100 0.6 10161137
20:00+2сз71193100 1.3 1016943
24 апреля, сб
сб2423:00+3сз5108398 0.3 1016639
02:00+3зсз4985100 0.6 1016680
05:00+3сз6117783 0.2 1016601
08:00+5зсз5868100 0.5 10161051
11:00+6сз7853100 0.2 10171655
14:00+6сз710545 0.6 10171636
17:00+5зсз7105924 0.1 10171544
20:00+3сз61183100 0.4 10171014
25 апреля, вс
вс2523:00+3сз81381100 0.4 10171260
02:00+2сз71290100 0.7 10161142
05:00+3сз71281100 0.5 10161131
08:00+4сз81371100 0.8 10161558
11:00+3сз81394100 0.8 10161069
14:00+4сз81280100 1.9 10171237
17:00+4сз71182100 0.6 10181144
20:00+3сз61179100 0.9 1017945